Regional Weather Roundup
Issued by NWS Jackson, KY

Home | Current Version | Previous Version | Graphics & Text | Print | Product List | Glossary On
Versions: 1 2 3 4 5 6 7 8 9 10 11 12 13 14 15 16 17 18 19 20 21 22 23 24 25 26 27 28 29 30 31 32 33 34 35 36 37 38 39 40 41 42 43 44 45 46 47 48 49 50
000
ASUS43 KJKL 281210
RWRJKL

EAST KENTUCKY HOURLY WEATHER ROUNDUP
NATIONAL WEATHER SERVICE JACKSON KY
800 AM EDT TUE JUL 28 2015

NOTE: "FAIR" INDICATES FEW OR NO CLOUDS BELOW 12,000 FEET WITH
NO SIGNIFICANT WEATHER AND/OR OBSTRUCTIONS TO VISIBILITY.

* THESE REPORTS ARE NOT UNDER NWS QUALITY CONTROL AND MAY NOT
  REPORT WEATHER SUCH AS PRECIPITATION AND FOG.

KYZ079-080-083-085-087-088-110-112-115-119-120-281300
...EASTERN KENTUCKY...

CITY           SKY/WX    TMP DP  RH WIND       PRES   REMARKS
JACKSON        FOG       72  71  97 CALM      30.04R VSB<1/4
6HR MIN TEMP:  71; 6HR MAX TEMP:  73;

LONDON         MOSUNNY   72  68  87 CALM      30.04R
6HR MIN TEMP:  70; 6HR MAX TEMP:  73;

SOMERSET*      MOSUNNY   70  70 100 CALM      30.03S FOG
MONTICELLO*    MOSUNNY   74  74 100 CALM      30.04S FOG
6HR MIN TEMP:  71; 6HR MAX TEMP:  74;

MIDDLESBORO*   FOG       70  70 100 CALM      30.06S VSB 1/2
6HR MIN TEMP:  70; 6HR MAX TEMP:  71;

HAZARD APT*    FOG       72  72 100 CALM      30.04S VSB 0
BLACK MTN*       N/A     68  66  94 S1          N/A
PIKEVILLE APT* FOG       72  72 100 CALM      30.04S VSB 0
BIG SANDY*     FOG       71  71 100 CALM      30.04R VSB<1/4
6HR MIN TEMP:  69; 6HR MAX TEMP:  72;

MOREHEAD APT*  SUNNY     72  70  94 CALM      30.04S
$$

KYZ035-036-041-042-044-050-067-078-099-281300
...CENTRAL KENTUCKY...

CITY           SKY/WX    TMP DP  RH WIND       PRES   REMARKS
MT STERLING*   SUNNY     72  72 100 CALM      30.03S
FLEMING/MASON* CLOUDY    70  70 100 CALM      30.03S FOG
DANVILLE*      CLOUDY    72  72 100 CALM      30.03R FOG
RICHMOND*      MOSUNNY   73  72  94 CALM      30.02R
LEXINGTON      MOSUNNY   74  73  97 SW3       30.01R FOG
6HR MIN TEMP:  71; 6HR MAX TEMP:  75;

FRANKFORT      PTSUNNY   76  71  85 CALM      30.00R
6HR MIN TEMP:  71; 6HR MAX TEMP:  76; 6HR PCP: TRACE;

$$

KYZ091>093-OHZ055-061-077-WVZ005-015-034-035-042-281300
...SOUTHERN OHIO/WEST VIRGINIA...

CITY           SKY/WX    TMP DP  RH WIND       PRES   REMARKS
COVINGTON      PTSUNNY   75  73  93 E5        30.01R FOG
COLUMBUS       PTSUNNY   74  65  73 CALM      30.03R
DAYTON         PTSUNNY   73  66  78 E3        30.04R
WILMINGTON     SUNNY     71  68  90 CALM      30.03R FOG
HUNTINGTON     FOG       71  71 100 CALM      30.01R VSB<1/4
CHARLESTON     FOG       70  69  97 CALM      30.03R VSB 1
PINEVILLE*     FOG       70  70 100 MISG      30.12R VSB 3/4
BECKLEY        MOSUNNY   71  67  87 SE3       30.10R
BLUEFIELD      SUNNY     72  67  84 CALM      30.13R
$$

VAZ002-007-008-TNZ017-027-036-066-071-281300
...SOUTHWEST VIRGINIA/EAST TENNESSEE...

CITY           SKY/WX    TMP DP  RH WIND       PRES   REMARKS
WISE*          FOG       72  72 100 CALM      30.14R VSB<1/4
ABINGDON*      MOSUNNY   73  70  88 CALM      30.10R
BRISTOL        PTSUNNY   74  71  91 CALM      30.07R FOG
KNOXVILLE      CLOUDY    75  72  90 E5        30.03R
OAK RIDGE      MOSUNNY   75  71  87 CALM      30.04R
CROSSVILLE     PTSUNNY   74  71  91 CALM      30.08R
NASHVILLE      MOSUNNY   78  76  93 CALM      30.00R FOG
$$

...KEY TO REMARKS...
VSB - VISIBILITY IN MILES
WCI - WIND CHILL INDEX
HX  - HEAT INDEX

$$


USA.gov is the U.S. government's official web portal to all federal, state and local government web resources and services.